Find Orbcomm FM119

NORAD ID: 41180 Int'l Des: 2015-081 Owner: ORBC Country: US Constellation: orbcomm operational
LEOCIRCULAR

リアルタイム位置

3D地球を読み込み中...

Orbcomm FM119について

説明を読み込み中...

次回通過

Passes for default location (London). Set your location on the main map for personalized predictions.

高度履歴

Loading altitude history...

軌道要素

1 41180U 15081B 26106.95598202 .00000221 00000-0 83213-4 0 9990
2 41180 46.9996 200.8430 0001195 309.0274 51.0505 14.58730383550061
Epoch: Apr 16, 2026 • Age: 13 hours

現在のステータス

高度 712.0 km
速度 7.50 km/s
衛星直下点 -46.98°S, 93.49°E
打ち上げ日 Dec 22, 2015
運用期間 10.3 years
タイプ other

技術仕様

分類 Payload
質量 172.00 kg
乾燥質量 158.00 kg
総質量 172.00 kg
長さ 1.00 m
直径 0.50 m
スパン 13.00 m
形状 Box+pan+ant
製造者 SNVL
バスタイプ SN-100A
フェーズステータス In Orbit
所有者/国 ORBC/US

Most Searched